Flag for Germany Weather past 2 weeks in Schwäbisch Hall, Baden-Württemberg, Germany

Now
67 °F

Overcast.


Feels Like: 67 °F
Forecast: 52 / 60 °F
Wind: 2 mph from West

Location: Oehringen

Current Time: Aug 30, 2014 at 12:11:27 PM

Latest Report: Aug 30, 2014 at 11:00 AM


Visibility: 28 mi

Pressure: 30.11 "Hg

Humidity: 65%

Dew point: 55 °F

Location of Schwäbisch HallLocation

Historic Weather in Schwäbisch Hall — Graph

°F

Schwäbisch Hall temperature yesterday

Maximum temperature yesterday: 74 °F (at 5:00 PM)
Minimum temperature yesterday: 61 °F (at 4:00 AM)
Average temperature yesterday: 67 °F

Past Weeks' High & Low Weather Summary

 TemperatureHumidityPressure
High75 °F (Aug 28, 5:00 PM)97% (Aug 26, 11:00 PM)30.16 "Hg (Aug 26, 11:00 PM)
Low48 °F (Aug 20, 7:00 AM)34% (Aug 22, 6:00 PM)29.67 "Hg (Aug 26, 8:00 AM)
Average60 °F73%29.99 "Hg
* Reported Aug 15 11:00 AM — Aug 30 11:00 AM, Schwäbisch Hall, Weather by CustomWeather, © 2014

Note: Actual official high and low records may vary slightly from our data, if they occured in-between our weather recording intervals... More about our weather records

Advertising

Schwäbisch Hall weather history for previous 24 hours

 ConditionsComfort  
Time TempWeatherWind HumidityBarometerVisibility
11:00 AM
Aug 30
67 °FOvercast.2 mph65%30.11 "Hg28 mi
10:00 AM64 °FPartly sunny.3 mph74%30.11 "Hg25 mi
9:00 AM63 °FPartly sunny.3 mph80%30.11 "Hg22 mi
8:00 AM62 °FOvercast.2 mph85%30.10 "Hg16 mi
7:00 AM60 °FOvercast.1 mph94%30.09 "Hg9 mi
6:00 AM60 °FLow clouds.3 mph94%30.09 "Hg9 mi
5:00 AM60 °FPassing clouds.2 mph93%30.08 "Hg9 mi
4:00 AM60 °FOvercast.1 mph93%30.08 "Hg13 mi
3:00 AM60 °FOvercast.1 mph93%30.07 "Hg11 mi
2:00 AM61 °FPassing clouds.1 mph91%30.07 "Hg16 mi
1:00 AM61 °FOvercast.2 mph89%30.06 "Hg14 mi
12:00 AM63 °FOvercast.1 mph82%30.05 "Hg22 mi
9:00 PM
Aug 29
66 °FOvercast.2 mph77%30.01 "Hg25 mi
8:00 PM70 °FPassing clouds.1 mph63%30.00 "Hg37 mi
7:00 PM72 °FSunny.2 mph57%30.00 "Hg43 mi
6:00 PM74 °FPassing clouds.3 mph53%29.99 "Hg43 mi
5:00 PM74 °FScattered clouds.3 mph53%30.00 "Hg28 mi
4:00 PM73 °FSunny.5 mph53%30.01 "Hg28 mi
3:00 PM71 °FPassing clouds.6 mph57%30.03 "Hg22 mi
2:00 PM72 °FPartly sunny.6 mph57%30.03 "Hg31 mi
1:00 PM68 °FOvercast.5 mph64%30.04 "Hg43 mi
12:00 PM66 °FOvercast.5 mph71%30.04 "Hg37 mi
Weather by CustomWeather, © 2014

See weather overviewHow to use our weather pages